FFT3051 KBNA-KDFW

Flight info

Callsign FFT3051
Flight time 1h 48m
Altitude 38000
Route DANLS4 DANLS LIT MEEOW FEWWW BRDJE5
Aircraft A321/M-SDE3FGHIRWY/LB1

Departure

Time 2026-05-07 23:58
Airport Nashville International Airport (KBNA)

Arrival

Time 2026-05-08 01:46
Airport Dallas Fort Worth International Airport (KDFW)
Time Latitude Longitude Altitude Speed Heading
2026-05-07 23:21 36.13058 -86.67033 573 ft 0 kts 121°
2026-05-07 23:40 36.13060 -86.67037 569 ft 2 kts 117°
2026-05-07 23:41 36.13066 -86.67050 569 ft 3 kts 120°
2026-05-07 23:41 36.13077 -86.67071 573 ft 3 kts 131°
2026-05-07 23:41 36.13091 -86.67088 574 ft 3 kts 146°
2026-05-07 23:41 36.13109 -86.67100 569 ft 3 kts 162°
2026-05-07 23:42 36.13119 -86.67104 573 ft 1 kts 167°
2026-05-07 23:42 36.13121 -86.67105 572 ft 1 kts 167°
2026-05-07 23:46 36.13119 -86.67104 573 ft 1 kts 167°
2026-05-07 23:46 36.13113 -86.67102 574 ft 1 kts 168°
2026-05-07 23:46 36.13088 -86.67097 570 ft 5 kts 174°
2026-05-07 23:46 36.13062 -86.67099 572 ft 3 kts 190°
2026-05-07 23:47 36.13043 -86.67107 569 ft 3 kts 200°
2026-05-07 23:47 36.13025 -86.67118 568 ft 4 kts 213°
2026-05-07 23:47 36.13007 -86.67137 568 ft 3 kts 221°
2026-05-07 23:47 36.12981 -86.67165 571 ft 3 kts 223°
2026-05-07 23:48 36.12978 -86.67169 572 ft 0 kts 223°
2026-05-07 23:48 36.12975 -86.67172 572 ft 3 kts 223°
2026-05-07 23:48 36.12968 -86.67181 569 ft 0 kts 223°
2026-05-07 23:49 36.12959 -86.67191 575 ft 5 kts 223°
2026-05-07 23:49 36.12950 -86.67201 568 ft 0 kts 220°
2026-05-07 23:50 36.12945 -86.67206 570 ft 4 kts 218°
2026-05-07 23:50 36.12916 -86.67226 574 ft 4 kts 204°
2026-05-07 23:50 36.12900 -86.67235 568 ft 1 kts 205°
2026-05-07 23:50 36.12896 -86.67237 574 ft 0 kts 205°
2026-05-07 23:51 36.12883 -86.67245 574 ft 6 kts 205°
2026-05-07 23:51 36.12842 -86.67280 569 ft 7 kts 229°
2026-05-07 23:52 36.12807 -86.67326 571 ft 7 kts 224°
2026-05-07 23:52 36.12777 -86.67361 574 ft 0 kts 222°
2026-05-07 23:52 36.12756 -86.67385 570 ft 11 kts 222°
2026-05-07 23:52 36.12754 -86.67477 571 ft 12 kts 309°
2026-05-07 23:53 36.12819 -86.67563 576 ft 18 kts 313°
2026-05-07 23:53 36.12918 -86.67692 574 ft 22 kts 314°
2026-05-07 23:53 36.13014 -86.67819 573 ft 19 kts 313°
2026-05-07 23:53 36.13082 -86.67918 576 ft 9 kts 280°
2026-05-07 23:54 36.13039 -86.67963 574 ft 8 kts 203°
2026-05-07 23:54 36.12985 -86.67985 577 ft 8 kts 198°
2026-05-07 23:54 36.12913 -86.68014 577 ft 14 kts 198°
2026-05-07 23:54 36.12821 -86.68050 577 ft 13 kts 197°
2026-05-07 23:55 36.12709 -86.68091 576 ft 22 kts 195°
2026-05-07 23:55 36.12546 -86.68148 573 ft 25 kts 196°
2026-05-07 23:55 36.12389 -86.68204 574 ft 23 kts 196°
2026-05-07 23:55 36.12246 -86.68257 577 ft 20 kts 196°
2026-05-07 23:56 36.12129 -86.68299 580 ft 16 kts 195°
2026-05-07 23:56 36.12028 -86.68335 582 ft 16 kts 196°
2026-05-07 23:56 36.11921 -86.68374 588 ft 14 kts 196°
2026-05-07 23:56 36.11812 -86.68412 593 ft 20 kts 195°
2026-05-07 23:57 36.11742 -86.68488 600 ft 8 kts 273°
2026-05-07 23:57 36.11754 -86.68547 613 ft 9 kts 288°
2026-05-07 23:57 36.11797 -86.68625 614 ft 13 kts 347°
2026-05-07 23:57 36.12000 -86.68556 598 ft 62 kts 17°
2026-05-07 23:58 36.12637 -86.68308 581 ft 126 kts 18°
2026-05-07 23:58 36.13623 -86.67922 731 ft 160 kts 17°
2026-05-07 23:58 36.14671 -86.67494 1453 ft 159 kts 16°
2026-05-07 23:58 36.15739 -86.67117 2153 ft 159 kts
2026-05-07 23:59 36.16862 -86.67169 2538 ft 172 kts 345°
2026-05-07 23:59 36.18063 -86.67645 2715 ft 192 kts 342°
2026-05-07 23:59 36.19400 -86.68181 2883 ft 211 kts 342°
2026-05-07 23:59 36.20877 -86.68755 3035 ft 237 kts 343°
2026-05-08 00:00 36.22534 -86.69446 3372 ft 256 kts 341°
2026-05-08 00:00 36.24225 -86.70111 4251 ft 257 kts 343°
2026-05-08 00:00 36.25966 -86.70721 4976 ft 263 kts 344°
2026-05-08 00:00 36.27700 -86.71463 5752 ft 265 kts 328°
2026-05-08 00:01 36.28952 -86.73064 6575 ft 265 kts 297°
2026-05-08 00:01 36.29335 -86.75285 7309 ft 271 kts 267°
2026-05-08 00:01 36.28948 -86.77575 8147 ft 270 kts 256°
2026-05-08 00:01 36.28402 -86.79790 8999 ft 269 kts 256°
2026-05-08 00:02 36.27837 -86.82024 9722 ft 273 kts 256°
2026-05-08 00:02 36.27284 -86.84281 10410 ft 275 kts 256°
2026-05-08 00:02 36.26737 -86.86565 10960 ft 284 kts 253°
2026-05-08 00:02 36.25839 -86.88867 11094 ft 310 kts 243°
2026-05-08 00:03 36.24633 -86.91202 11219 ft 333 kts 240°
2026-05-08 00:03 36.23294 -86.93632 11470 ft 348 kts 240°
2026-05-08 00:03 36.21940 -86.96142 12035 ft 352 kts 241°
2026-05-08 00:03 36.20630 -86.98710 12715 ft 352 kts 243°
2026-05-08 00:04 36.19371 -87.01311 13396 ft 354 kts 244°
2026-05-08 00:04 36.18142 -87.03951 14051 ft 354 kts 245°
2026-05-08 00:04 36.16925 -87.06612 14646 ft 355 kts 245°
2026-05-08 00:04 36.15711 -87.09279 15235 ft 357 kts 245°
2026-05-08 00:05 36.14487 -87.11956 15807 ft 358 kts 245°
2026-05-08 00:05 36.13251 -87.14642 16372 ft 360 kts 245°
2026-05-08 00:05 36.12003 -87.17339 16918 ft 362 kts 245°
2026-05-08 00:05 36.10752 -87.20052 17475 ft 364 kts 246°
2026-05-08 00:06 36.09756 -87.22912 18007 ft 361 kts 255°
2026-05-08 00:06 36.09115 -87.25912 18525 ft 361 kts 259°
2026-05-08 00:06 36.08514 -87.28938 18988 ft 363 kts 259°
2026-05-08 00:06 36.07904 -87.31974 19464 ft 364 kts 259°
2026-05-08 00:07 36.07289 -87.35016 19907 ft 366 kts 259°
2026-05-08 00:07 36.06678 -87.38034 20358 ft 368 kts 259°
2026-05-08 00:07 36.06049 -87.41146 20833 ft 369 kts 259°
2026-05-08 00:07 36.05432 -87.44200 21296 ft 371 kts 259°
2026-05-08 00:08 36.04807 -87.47295 21756 ft 373 kts 259°
2026-05-08 00:08 36.04177 -87.50409 22205 ft 374 kts 259°
2026-05-08 00:08 36.03544 -87.53535 22655 ft 376 kts 259°
2026-05-08 00:08 36.02908 -87.56672 23096 ft 377 kts 259°
2026-05-08 00:09 36.02266 -87.59832 23528 ft 379 kts 259°
2026-05-08 00:09 36.01620 -87.62991 23916 ft 380 kts 259°
2026-05-08 00:09 36.00970 -87.66161 24315 ft 380 kts 259°
2026-05-08 00:09 36.00318 -87.69331 24736 ft 380 kts 258°
2026-05-08 00:10 35.99669 -87.72484 25145 ft 379 kts 259°
2026-05-08 00:10 35.99020 -87.75637 25551 ft 379 kts 259°
2026-05-08 00:10 35.98374 -87.78787 25963 ft 378 kts 258°
2026-05-08 00:10 35.97729 -87.81933 26373 ft 377 kts 259°
2026-05-08 00:11 35.97086 -87.85069 26783 ft 377 kts 259°
2026-05-08 00:11 35.96442 -87.88203 27178 ft 376 kts 258°
2026-05-08 00:11 35.95797 -87.91332 27548 ft 375 kts 258°
2026-05-08 00:11 35.95156 -87.94439 28097 ft 370 kts 258°
2026-05-08 00:12 35.94520 -87.97496 28659 ft 365 kts 258°
2026-05-08 00:12 35.93888 -88.00506 29222 ft 360 kts 258°
2026-05-08 00:12 35.93264 -88.03476 29779 ft 355 kts 258°
2026-05-08 00:12 35.92653 -88.06402 30292 ft 350 kts 258°
2026-05-08 00:13 35.92052 -88.09293 30729 ft 346 kts 258°
2026-05-08 00:13 35.91465 -88.12123 31078 ft 344 kts 258°
2026-05-08 00:13 35.90871 -88.14979 31419 ft 343 kts 258°
2026-05-08 00:13 35.90279 -88.17815 31760 ft 341 kts 258°
2026-05-08 00:14 35.89688 -88.20638 32112 ft 339 kts 258°
2026-05-08 00:14 35.89100 -88.23443 32478 ft 337 kts 258°
2026-05-08 00:14 35.88515 -88.26230 32842 ft 334 kts 258°
2026-05-08 00:14 35.87891 -88.28989 33219 ft 333 kts 257°
2026-05-08 00:15 35.87211 -88.31709 33597 ft 331 kts 256°
2026-05-08 00:15 35.86744 -88.33494 33852 ft 329 kts 256°
2026-05-08 00:15 35.86033 -88.36172 34186 ft 327 kts 256°
2026-05-08 00:15 35.85327 -88.38832 34477 ft 326 kts 256°
2026-05-08 00:16 35.84628 -88.41483 34729 ft 325 kts 256°
2026-05-08 00:16 35.83936 -88.44133 34973 ft 324 kts 256°
2026-05-08 00:16 35.83246 -88.46779 35217 ft 324 kts 256°
2026-05-08 00:16 35.82559 -88.49421 35468 ft 323 kts 256°
2026-05-08 00:17 35.81874 -88.52058 35684 ft 323 kts 256°
2026-05-08 00:17 35.81191 -88.54691 35918 ft 322 kts 256°
2026-05-08 00:17 35.80510 -88.57322 36148 ft 322 kts 256°
2026-05-08 00:17 35.79828 -88.59947 36371 ft 321 kts 256°
2026-05-08 00:18 35.79146 -88.62561 36590 ft 320 kts 256°
2026-05-08 00:18 35.78464 -88.65174 36797 ft 320 kts 256°
2026-05-08 00:18 35.77791 -88.67748 36995 ft 319 kts 256°
2026-05-08 00:18 35.77110 -88.70351 37208 ft 319 kts 256°
2026-05-08 00:19 35.76431 -88.72950 37389 ft 318 kts 256°
2026-05-08 00:19 35.75751 -88.75545 37567 ft 318 kts 256°
2026-05-08 00:19 35.75071 -88.78139 37739 ft 318 kts 256°
2026-05-08 00:19 35.74394 -88.80725 37830 ft 318 kts 256°
2026-05-08 00:20 35.73717 -88.83313 37996 ft 318 kts 256°
2026-05-08 00:20 35.73039 -88.85912 38077 ft 319 kts 256°
2026-05-08 00:20 35.71676 -88.91103 38075 ft 318 kts 256°
2026-05-08 00:21 35.70308 -88.96288 38074 ft 318 kts 256°
2026-05-08 00:21 35.68936 -89.01468 38074 ft 318 kts 256°
2026-05-08 00:22 35.67566 -89.06646 38083 ft 318 kts 256°
2026-05-08 00:22 35.66198 -89.11825 38084 ft 318 kts 256°
2026-05-08 00:23 35.64829 -89.16973 38082 ft 318 kts 256°
2026-05-08 00:23 35.63450 -89.22143 38080 ft 318 kts 256°
2026-05-08 00:24 35.62070 -89.27318 38083 ft 319 kts 256°
2026-05-08 00:24 35.60690 -89.32492 38083 ft 319 kts 256°
2026-05-08 00:25 35.59304 -89.37669 38084 ft 318 kts 255°
2026-05-08 00:25 35.57915 -89.42838 38084 ft 319 kts 255°
2026-05-08 00:26 35.56531 -89.47976 38087 ft 319 kts 255°
2026-05-08 00:26 35.55144 -89.53142 38085 ft 319 kts 255°
2026-05-08 00:27 35.53745 -89.58317 38077 ft 319 kts 255°
2026-05-08 00:27 35.52348 -89.63482 38073 ft 319 kts 255°
2026-05-08 00:28 35.50943 -89.68648 38068 ft 319 kts 255°
2026-05-08 00:28 35.49543 -89.73816 38048 ft 320 kts 255°
2026-05-08 00:29 35.48137 -89.79007 38058 ft 321 kts 255°
2026-05-08 00:29 35.46733 -89.84160 38057 ft 321 kts 255°
2026-05-08 00:30 35.45316 -89.89347 38055 ft 320 kts 255°
2026-05-08 00:30 35.43899 -89.94526 38056 ft 320 kts 255°
2026-05-08 00:31 35.42482 -89.99706 38058 ft 321 kts 255°
2026-05-08 00:31 35.41060 -90.04888 38073 ft 321 kts 255°
2026-05-08 00:32 35.39635 -90.10067 38075 ft 321 kts 255°
2026-05-08 00:32 35.38209 -90.15250 38073 ft 321 kts 255°
2026-05-08 00:33 35.36779 -90.20426 38067 ft 320 kts 255°
2026-05-08 00:33 35.35345 -90.25596 38067 ft 320 kts 255°
2026-05-08 00:34 35.33913 -90.30761 38062 ft 320 kts 255°
2026-05-08 00:34 35.32481 -90.35926 38062 ft 320 kts 255°
2026-05-08 00:35 35.31051 -90.41061 38064 ft 321 kts 255°
2026-05-08 00:35 35.29607 -90.46232 38068 ft 321 kts 255°
2026-05-08 00:36 35.28163 -90.51400 38068 ft 321 kts 255°
2026-05-08 00:36 35.26720 -90.56565 38068 ft 321 kts 255°
2026-05-08 00:37 35.25275 -90.61731 38073 ft 321 kts 255°
2026-05-08 00:38 35.23091 -90.69490 38070 ft 322 kts 254°
2026-05-08 00:38 35.21631 -90.74676 38070 ft 322 kts 255°
2026-05-08 00:39 35.20173 -90.79864 38071 ft 323 kts 254°
2026-05-08 00:39 35.18702 -90.85052 38070 ft 323 kts 254°
2026-05-08 00:40 35.17223 -90.90238 38071 ft 323 kts 254°
2026-05-08 00:40 35.15751 -90.95437 38070 ft 323 kts 254°
2026-05-08 00:41 35.14293 -91.00587 38070 ft 323 kts 254°
2026-05-08 00:41 35.12819 -91.05777 38074 ft 323 kts 254°
2026-05-08 00:42 35.11340 -91.10963 38073 ft 323 kts 254°
2026-05-08 00:42 35.09859 -91.16138 38071 ft 323 kts 253°
2026-05-08 00:43 35.08368 -91.21337 38074 ft 324 kts 254°
2026-05-08 00:43 35.06876 -91.26530 38076 ft 324 kts 253°
2026-05-08 00:44 35.05393 -91.31686 38073 ft 324 kts 253°
2026-05-08 00:44 35.03894 -91.36876 38073 ft 324 kts 253°
2026-05-08 00:45 35.02401 -91.42063 38079 ft 324 kts 254°
2026-05-08 00:45 35.00907 -91.47249 38078 ft 324 kts 253°
2026-05-08 00:46 34.99404 -91.52430 38076 ft 324 kts 253°
2026-05-08 00:46 34.97899 -91.57613 38031 ft 324 kts 253°
2026-05-08 00:47 34.96393 -91.62817 38077 ft 326 kts 253°
2026-05-08 00:47 34.94896 -91.67996 38070 ft 326 kts 253°
2026-05-08 00:48 34.93375 -91.73198 38069 ft 326 kts 253°
2026-05-08 00:48 34.91850 -91.78403 38074 ft 326 kts 253°
2026-05-08 00:49 34.90325 -91.83608 38064 ft 326 kts 253°
2026-05-08 00:49 34.88798 -91.88808 38057 ft 326 kts 253°
2026-05-08 00:50 34.87269 -91.94007 38055 ft 326 kts 253°
2026-05-08 00:50 34.85734 -91.99211 38057 ft 327 kts 253°
2026-05-08 00:51 34.84206 -92.04417 38051 ft 327 kts 253°
2026-05-08 00:51 34.82667 -92.09620 38054 ft 327 kts 253°
2026-05-08 00:52 34.81127 -92.14823 38054 ft 327 kts 253°
2026-05-08 00:52 34.79429 -92.19966 38054 ft 328 kts 250°
2026-05-08 00:53 34.77611 -92.25013 38065 ft 328 kts 250°
2026-05-08 00:53 34.75779 -92.30094 38064 ft 328 kts 250°
2026-05-08 00:54 34.73971 -92.35176 38063 ft 327 kts 250°
2026-05-08 00:54 34.72169 -92.40261 38063 ft 327 kts 250°
2026-05-08 00:55 34.70373 -92.45348 38043 ft 328 kts 250°
2026-05-08 00:55 34.68564 -92.50460 38065 ft 330 kts 250°
2026-05-08 00:56 34.66752 -92.55583 38066 ft 330 kts 250°
2026-05-08 00:56 34.64929 -92.60707 38063 ft 330 kts 250°
2026-05-08 00:57 34.63113 -92.65791 38059 ft 330 kts 250°
2026-05-08 00:57 34.61284 -92.70907 38056 ft 330 kts 250°
2026-05-08 00:58 34.59460 -92.76010 38056 ft 329 kts 250°
2026-05-08 00:58 34.57636 -92.81112 38059 ft 329 kts 250°
2026-05-08 00:59 34.55807 -92.86206 38062 ft 329 kts 250°
2026-05-08 00:59 34.53977 -92.91302 38057 ft 329 kts 250°
2026-05-08 01:00 34.52144 -92.96382 38057 ft 329 kts 250°
2026-05-08 01:00 34.50314 -93.01472 38063 ft 329 kts 250°
2026-05-08 01:01 34.48479 -93.06559 38058 ft 330 kts 250°
2026-05-08 01:01 34.46635 -93.11652 38065 ft 330 kts 250°
2026-05-08 01:02 34.44791 -93.16740 38054 ft 330 kts 249°
2026-05-08 01:02 34.42943 -93.21837 38029 ft 331 kts 250°
2026-05-08 01:03 34.41088 -93.26925 38052 ft 332 kts 250°
2026-05-08 01:03 34.39223 -93.32054 38051 ft 332 kts 250°
2026-05-08 01:04 34.37359 -93.37178 38051 ft 332 kts 250°
2026-05-08 01:04 34.35808 -93.41436 38051 ft 332 kts 250°
2026-05-08 01:05 34.33937 -93.46554 38049 ft 333 kts 250°
2026-05-08 01:05 34.31757 -93.52500 38045 ft 332 kts 250°
2026-05-08 01:06 34.30024 -93.57671 38047 ft 332 kts 252°
2026-05-08 01:06 34.28653 -93.62041 38046 ft 331 kts 252°
2026-05-08 01:07 34.27010 -93.67249 38048 ft 332 kts 252°
2026-05-08 01:07 34.25355 -93.72413 38051 ft 332 kts 251°
2026-05-08 01:08 34.23668 -93.77608 38048 ft 332 kts 251°
2026-05-08 01:08 34.21976 -93.82799 38043 ft 332 kts 251°
2026-05-08 01:09 34.20285 -93.87993 38045 ft 332 kts 251°
2026-05-08 01:09 34.18612 -93.93200 38045 ft 332 kts 252°
2026-05-08 01:10 34.17023 -93.98434 38041 ft 332 kts 252°
2026-05-08 01:10 34.15441 -94.03673 38041 ft 332 kts 252°
2026-05-08 01:11 34.13843 -94.08908 38040 ft 333 kts 252°
2026-05-08 01:11 34.12234 -94.14156 38038 ft 333 kts 252°
2026-05-08 01:12 34.10622 -94.19400 38035 ft 333 kts 252°
2026-05-08 01:12 34.09008 -94.24624 38036 ft 335 kts 251°
2026-05-08 01:13 34.07374 -94.29899 38036 ft 336 kts 251°
2026-05-08 01:13 34.05739 -94.35174 38035 ft 336 kts 251°
2026-05-08 01:14 34.04110 -94.40448 38036 ft 336 kts 251°
2026-05-08 01:14 34.02474 -94.45722 38035 ft 336 kts 251°
2026-05-08 01:15 34.00836 -94.50991 38035 ft 336 kts 251°
2026-05-08 01:15 33.99194 -94.56256 38036 ft 336 kts 251°
2026-05-08 01:16 33.97547 -94.61531 38037 ft 337 kts 251°
2026-05-08 01:16 33.95893 -94.66813 38038 ft 337 kts 251°
2026-05-08 01:17 33.94249 -94.72066 38040 ft 337 kts 251°
2026-05-08 01:17 33.92600 -94.77349 38041 ft 337 kts 251°
2026-05-08 01:18 33.90939 -94.82627 38048 ft 337 kts 251°
2026-05-08 01:18 33.89272 -94.87901 38048 ft 337 kts 251°
2026-05-08 01:19 33.87609 -94.93170 38049 ft 337 kts 251°
2026-05-08 01:19 33.85948 -94.98444 38049 ft 337 kts 251°
2026-05-08 01:20 33.84281 -95.03709 38046 ft 338 kts 251°
2026-05-08 01:20 33.82602 -95.09001 38052 ft 339 kts 251°
2026-05-08 01:21 33.80923 -95.14296 38052 ft 339 kts 251°
2026-05-08 01:21 33.79233 -95.19584 38055 ft 339 kts 251°
2026-05-08 01:22 33.77542 -95.24876 38060 ft 339 kts 251°
2026-05-08 01:22 33.75859 -95.30126 38059 ft 339 kts 251°
2026-05-08 01:23 33.74166 -95.35412 38063 ft 339 kts 251°
2026-05-08 01:23 33.72474 -95.40683 38064 ft 338 kts 251°
2026-05-08 01:24 33.70775 -95.45956 38065 ft 338 kts 250°
2026-05-08 01:24 33.69069 -95.51217 37552 ft 340 kts 250°
2026-05-08 01:24 33.68206 -95.53888 35975 ft 347 kts 249°
2026-05-08 01:25 33.67314 -95.56642 34172 ft 362 kts 248°
2026-05-08 01:25 33.66394 -95.59473 32904 ft 360 kts 248°
2026-05-08 01:25 33.65510 -95.62183 32539 ft 337 kts 249°
2026-05-08 01:25 33.64661 -95.64786 31960 ft 333 kts 249°
2026-05-08 01:26 33.63822 -95.67355 31889 ft 332 kts 249°
2026-05-08 01:26 33.62126 -95.72561 31753 ft 339 kts 249°
2026-05-08 01:26 33.61260 -95.75204 31467 ft 341 kts 249°
2026-05-08 01:27 33.60388 -95.77853 30853 ft 342 kts 250°
2026-05-08 01:27 33.59516 -95.80517 30104 ft 345 kts 250°
2026-05-08 01:27 33.58639 -95.83203 29481 ft 347 kts 250°
2026-05-08 01:27 33.57745 -95.85934 28931 ft 353 kts 250°
2026-05-08 01:28 33.56852 -95.88675 28377 ft 353 kts 250°
2026-05-08 01:28 33.55956 -95.91417 27817 ft 353 kts 251°
2026-05-08 01:28 33.55056 -95.94161 27261 ft 353 kts 251°
2026-05-08 01:28 33.54157 -95.96898 26691 ft 353 kts 250°
2026-05-08 01:29 33.53254 -95.99645 26142 ft 355 kts 250°
2026-05-08 01:29 33.52352 -96.02399 25596 ft 355 kts 251°
2026-05-08 01:29 33.51452 -96.05144 25039 ft 354 kts 251°
2026-05-08 01:29 33.50548 -96.07884 24479 ft 353 kts 251°
2026-05-08 01:30 33.49643 -96.10626 23920 ft 353 kts 251°
2026-05-08 01:30 33.48736 -96.13362 23321 ft 354 kts 251°
2026-05-08 01:30 33.47828 -96.16100 22728 ft 352 kts 251°
2026-05-08 01:30 33.46930 -96.18812 22436 ft 349 kts 251°
2026-05-08 01:31 33.46033 -96.21522 22356 ft 351 kts 251°
2026-05-08 01:31 33.45126 -96.24235 22242 ft 351 kts 249°
2026-05-08 01:31 33.43895 -96.26776 22012 ft 356 kts 238°
2026-05-08 01:31 33.42320 -96.29029 21506 ft 355 kts 234°
2026-05-08 01:32 33.40710 -96.31225 21213 ft 346 kts 233°
2026-05-08 01:32 33.39131 -96.33377 20707 ft 343 kts 233°
2026-05-08 01:32 33.37565 -96.35520 20211 ft 340 kts 233°
2026-05-08 01:32 33.36015 -96.37654 19673 ft 340 kts 233°
2026-05-08 01:33 33.34473 -96.39772 19254 ft 336 kts 233°
2026-05-08 01:33 33.32934 -96.41881 18787 ft 334 kts 232°
2026-05-08 01:33 33.31422 -96.43974 18288 ft 333 kts 233°
2026-05-08 01:33 33.29927 -96.46066 17803 ft 330 kts 233°
2026-05-08 01:34 33.28450 -96.48150 17318 ft 327 kts 233°
2026-05-08 01:34 33.26988 -96.50214 16893 ft 324 kts 232°
2026-05-08 01:34 33.25500 -96.52234 16609 ft 323 kts 231°
2026-05-08 01:34 33.23994 -96.54224 16280 ft 323 kts 231°
2026-05-08 01:35 33.22480 -96.56201 15973 ft 322 kts 231°
2026-05-08 01:35 33.20970 -96.58167 15695 ft 318 kts 231°
2026-05-08 01:35 33.19507 -96.60074 15386 ft 313 kts 231°
2026-05-08 01:35 33.18045 -96.61983 15023 ft 310 kts 231°
2026-05-08 01:36 33.16609 -96.63892 14626 ft 308 kts 232°
2026-05-08 01:36 33.15199 -96.65818 14238 ft 307 kts 233°
2026-05-08 01:36 33.13806 -96.67745 13853 ft 307 kts 233°
2026-05-08 01:36 33.12413 -96.69670 13444 ft 305 kts 233°
2026-05-08 01:37 33.11046 -96.71552 13308 ft 294 kts 233°
2026-05-08 01:37 33.09731 -96.73355 13174 ft 283 kts 233°
2026-05-08 01:37 33.08465 -96.75091 13005 ft 274 kts 233°
2026-05-08 01:37 33.07226 -96.76794 12730 ft 269 kts 233°
2026-05-08 01:38 33.06027 -96.78497 12225 ft 268 kts 240°
2026-05-08 01:38 33.05358 -96.80562 11153 ft 273 kts 264°
2026-05-08 01:38 33.05586 -96.82829 10115 ft 284 kts 291°
2026-05-08 01:38 33.06670 -96.84737 9564 ft 277 kts 307°
2026-05-08 01:39 33.07969 -96.86422 8804 ft 275 kts 309°
2026-05-08 01:39 33.09271 -96.88075 8047 ft 272 kts 309°
2026-05-08 01:39 33.10554 -96.89725 7302 ft 270 kts 309°
2026-05-08 01:39 33.11820 -96.91372 6587 ft 268 kts 310°
2026-05-08 01:40 33.13064 -96.93020 5834 ft 267 kts 310°
2026-05-08 01:40 33.14275 -96.94689 5218 ft 265 kts 307°
2026-05-08 01:40 33.15351 -96.96508 5055 ft 270 kts 303°
2026-05-08 01:40 33.16387 -96.98385 5015 ft 271 kts 302°
2026-05-08 01:41 33.17215 -97.00375 5017 ft 272 kts 282°
2026-05-08 01:41 33.17197 -97.02583 5013 ft 266 kts 250°
2026-05-08 01:41 33.16181 -97.04294 5006 ft 247 kts 214°
2026-05-08 01:41 33.14633 -97.05035 5017 ft 241 kts 184°
2026-05-08 01:42 33.12972 -97.04841 5008 ft 241 kts 161°
2026-05-08 01:42 33.11433 -97.04030 5007 ft 243 kts 153°
2026-05-08 01:42 33.09930 -97.03086 4757 ft 242 kts 152°
2026-05-08 01:42 33.08317 -97.02504 4276 ft 247 kts 177°
2026-05-08 01:43 33.06602 -97.02502 4024 ft 242 kts 180°
2026-05-08 01:43 33.04922 -97.02524 3617 ft 245 kts 180°
2026-05-08 01:43 33.03219 -97.02536 3006 ft 244 kts 179°
2026-05-08 01:43 33.01549 -97.02544 2552 ft 234 kts 180°
2026-05-08 01:44 32.99991 -97.02553 2233 ft 217 kts 180°
2026-05-08 01:44 32.98545 -97.02561 1959 ft 196 kts 179°
2026-05-08 01:44 32.97265 -97.02568 1731 ft 173 kts 179°
2026-05-08 01:44 32.96131 -97.02574 1491 ft 156 kts 179°
2026-05-08 01:45 32.95080 -97.02579 1290 ft 147 kts 180°
2026-05-08 01:45 32.94063 -97.02584 1097 ft 145 kts 180°
2026-05-08 01:45 32.93058 -97.02589 906 ft 146 kts 181°
2026-05-08 01:45 32.92054 -97.02599 702 ft 142 kts 180°
2026-05-08 01:46 32.91079 -97.02601 576 ft 133 kts 181°
2026-05-08 01:46 32.90282 -97.02607 578 ft 89 kts 180°
2026-05-08 01:46 32.89831 -97.02608 571 ft 40 kts 180°
2026-05-08 01:46 32.89604 -97.02662 576 ft 31 kts 205°
2026-05-08 01:47 32.89478 -97.02747 575 ft 10 kts 209°
2026-05-08 01:47 32.89466 -97.02755 569 ft 0 kts 209°
2026-05-08 01:49 32.89465 -97.02755 569 ft 1 kts 209°
2026-05-08 01:49 32.89432 -97.02779 569 ft 11 kts 213°
2026-05-08 01:49 32.89396 -97.02840 573 ft 8 kts 256°
2026-05-08 01:50 32.89395 -97.02933 575 ft 14 kts 270°
2026-05-08 01:50 32.89394 -97.03058 576 ft 15 kts 271°
2026-05-08 01:50 32.89395 -97.03176 576 ft 14 kts 269°
2026-05-08 01:50 32.89394 -97.03277 583 ft 9 kts 267°
2026-05-08 01:51 32.89355 -97.03317 584 ft 11 kts 186°
2026-05-08 01:51 32.89225 -97.03317 583 ft 23 kts 179°
2026-05-08 01:51 32.89094 -97.03319 583 ft 18 kts 180°
2026-05-08 01:51 32.89012 -97.03320 583 ft 4 kts 181°
2026-05-08 01:52 32.88985 -97.03335 583 ft 6 kts 228°
2026-05-08 01:52 32.88977 -97.03410 584 ft 11 kts 269°
2026-05-08 01:52 32.88976 -97.03436 584 ft 8 kts 268°
2026-05-08 01:52 32.88982 -97.03499 584 ft 2 kts 288°
2026-05-08 01:53 32.88984 -97.03507 584 ft 0 kts 288°
2026-05-08 01:53 32.88986 -97.03514 584 ft 2 kts 288°
2026-05-08 01:53 32.88989 -97.03522 584 ft 0 kts 288°
2026-05-08 01:53 32.88989 -97.03523 584 ft 0 kts 288°